Location: Colorado Springs
(38.8340°N, 104.8210°W)
Time: 11:49:22
(UTC-06:00)

ISS - Pass Details

Date: 13 October 2017
Orbit: 401 x 408 km, 51.6° (Epoch: 22 October)

Event Time Altitude Azimuth Distance (km) Brightness Sun altitude
Rises 19:50:26 0° 308° (NW) 2,325 1.0 -17.8°
Reaches altitude 10° 19:52:31 10° 308° (NW) 1,463 -0.2 -18.2°
Maximum altitude 19:55:48 85° 221° (SW) 411 -3.9 -18.8°
Enters shadow 19:56:10 68° 142° (SE) 438 -3.9 -18.9°
